Regional Weather Roundup
Issued by NWS Mt. Holly, NJ

Home | Current Version | Previous Version | Text Only | Print | Product List | Glossary On
Versions: 1 2 3 4 5 6 7 8 9 10 11 12 13 14 15 16 17 18 19 20 21 22 23 24 25 26 27
000
ASUS41 KPHI 261012
RWRPHI

REGIONAL WEATHER ROUNDUP
NATIONAL WEATHER SERVICE MOUNT HOLLY NJ
600 AM EDT TUE JUL 26 2016

NOTE:  "FAIR" INDICATES FEW OR NO CLOUDS BELOW 12,000 FEET WITH NO
SIGNIFICANT WEATHER AND/OR OBSTRUCTIONS TO VISIBILITY.

 * = STATION DOES NOT REPORT PRECIPITATION (E.G. RAIN, SNOW, ETC.)
        OR FOG.

NJZ015>026-261100-
SOUTHERN NEW JERSEY

CITY           SKY/WX    TMP DP  RH WIND       PRES   REMARKS
POMONA         CLEAR     72  70  93 NW5       29.91R
WILDWOOD*      CLEAR     78  74  87 W3        29.91R
MILLVILLE      CLEAR     73  71  93 N6        29.91R
WRIGHTSTOWN    CLEAR     72  71  96 W7        29.88R
MOUNT HOLLY    CLEAR     73  71  93 SW3       29.91R FOG
TRENTON        CLEAR     71  69  93 NW3       29.90R

$$
NJZ001>014-261100-
NORTHERN NEW JERSEY

CITY           SKY/WX    TMP DP  RH WIND       PRES   REMARKS
SUSSEX         PTCLDY    67  67 100 CALM      29.92R FOG
ANDOVER*         N/A     66  65  96 CALM      29.93R
MORRISTOWN     FOG       64  63  94 CALM      29.90R VSB 1/4
NEWARK         PTCLDY    72  68  87 VRB6      29.89R
TETERBORO      CLEAR     71  67  87 NW3       29.88R
CALDWELL       CLEAR     70  68  93 CALM      29.90R
SOMERVILLE     FOG       66  65  96 CALM      29.89R VSB 3/4
ALLAIRE*       CLEAR     72  70  93 W7        29.90R
TOMS RIVER*    CLEAR     72  71  97 SW5       29.91R FOG

$$
PAZ043-044-047-054-055-060>062-066>071-261100-
EASTERN PENNSYLVANIA

CITY           SKY/WX    TMP DP  RH WIND       PRES   REMARKS
PHILADELPHIA   MOCLDY    75  71  87 W6        29.92R
NORTH PHILA    CLEAR     73  71  93 W8        29.92R
BLUE BELL*     CLEAR     68  68 100 CALM      29.92R
DOYLESTOWN     CLEAR     69  68  96 CALM      29.92R
QUAKERTOWN*    CLEAR     66  66 100 CALM      29.94S
PERKASIE*      FOG       66  66 100 CALM      29.94S VSB 1
POTTSTOWN      CLOUDY    69  69 100 NW5       29.95  FOG
LANCASTER      FOG       69  69 100 W3        29.95R VSB 1/4
COATESVILLE    PTCLDY    72  70  94 W7        29.96R
READING          N/A     69  67  93 CALM      29.93S VSB 1/4
ALLENTOWN      CLEAR     67  65  93 W3        29.93R FOG
MOUNT POCONO   PTCLDY    64  32  30 NW7       29.98R
HAZLETON       FOG       66  66 100 CALM      30.02R VSB 1/4
LEHIGHTON      FOG       64  64 100 CALM      29.95S VSB 1/2
WILKES BARRE   CLOUDY    69  67  93 SW8       29.95R FOG

$$
DEZALL-MDZ008-012-015-019-020-261100-
DELAWARE AND EASTERN MARYLAND

CITY           SKY/WX    TMP DP  RH WIND       PRES   REMARKS
WILMINGTON     CLEAR     73  71  93 NW7       29.93R
DOVER          PTCLDY    75  75 100 NW5       29.90R
GEORGETOWN     PTCLDY    74  72  93 NW3       29.91R
EASTON         PTCLDY    76  76 100 CALM      29.95R
ABERDEEN       MOCLDY    73  70  88 CALM      29.91
PATUXENT       CLOUDY    78  75  90 NW6       29.91R
OCEAN CITY     PTCLDY    76  74  93 NW3       29.90R
WALLOPS ISLAND FAIR      79  76  90 SW7       29.90R
CAMBRIDGE      PTCLDY    72  72 100 CALM      29.91R
SALISBURY      PTCLDY    75  73  93 CALM      29.91R

$$
PAZ001-021-NYZ056-072-MDZ011-DCZ001-261100-
OTHER NEARBY LOCATIONS

CITY           SKY/WX    TMP DP  RH WIND       PRES   REMARKS
HARRISBURG     FOG       72  72 100 W6        29.94S VSB 1/2
STATE COLLEGE  PTCLDY    70  70 100 W6        29.99R
WILLIAMSPORT   CLOUDY    72  68  87 W3        29.94S
BINGHAMTON     PTCLDY    64  64 100 NW6       29.97R
NEW YORK CITY  CLEAR     72  68  87 NW3       29.92R
BALTIMORE      CLOUDY    74  70  87 NW3       29.92R
WASHINGTON DC  MOCLDY    80  73  79 N6        29.93R

$$




USA.gov is the U.S. government's official web portal to all federal, state and local government web resources and services.